QPF
0.08 0.10 0.10 0.09 0.08 0.07 0.08 0.10 0.09 0.08 0.07 0.04 0.03 0.02 0.04 0.07 0.11 0.09 0.10 0.08 0.06 0.04 0.02 0.01 0.02 0.03 0.04 0.03 0.04 0.03 0.03 0.02 0.02 0.02 0.03 0.06 0.08 0.08
0.09 0.09 0.09 0.06 0.06 0.06 0.06 0.05 0.05 0.07 0.06 0.03 0.02 0.02 0.04 0.05 0.07 0.07 0.06 0.06 0.05 0.04 0.03 0.02 0.02 0.03 0.05 0.07 0.07 0.06 0.05 0.03 0.02 0.02 0.02 0.02 0.05 0.07
0.07 0.07 0.07 0.05 0.05 0.06 0.07 0.05 0.04 0.06 0.06 0.03 0.03 0.04 0.05 0.06 0.07 0.06 0.05 0.05 0.04 0.06 0.05 0.04 0.03 0.03 0.03 0.03 0.03 0.03 0.03 0.02 0.02 0.02 0.02 0.02 0.02 0.05
0.05 0.06 0.06 0.06 0.07 0.08 0.08 0.07 0.06 0.07 0.07 0.06 0.05 0.07 0.07 0.05 0.06 0.07 0.06 0.05 0.04 0.04 0.05 0.05 0.04 0.03 0.03 0.03 0.02 0.02 0.02 0.02 0.02 0.03 0.03 0.02 0.02 0.02
0.04 0.05 0.05 0.06 0.08 0.09 0.07 0.07 0.07 0.06 0.07 0.07 0.06 0.07 0.05 0.04 0.05 0.05 0.06 0.06 0.05 0.03 0.03 0.03 0.03 0.02 0.02 0.02 0.02 0.01 0.01 0.01 0.01 0.01 0.02 0.02 0.02 0.03
0.06 0.06 0.07 0.07 0.08 0.09 0.11 0.11 0.08 0.08 0.09 0.08 0.07 0.07 0.07 0.05 0.05 0.06 0.06 0.06 0.05 0.03 0.03 0.03 0.03 0.02 0.02 0.01 0.01 0.01 0.01 0.01 0.01 0.01 0.01 0.01 0.01 0.01
0.07 0.08 0.07 0.07 0.08 0.10 0.08 0.07 0.07 0.09 0.10 0.10 0.09 0.09 0.08 0.08 0.06 0.06 0.06 0.05 0.05 0.03 0.04 0.03 0.04 0.03 0.02 0.01 0.01 0.01 0.01 0.01 0.01 0.01 0.01 0.01 0.01 0.01
0.06 0.07 0.06 0.05 0.03 0.05 0.08 0.08 0.09 0.10 0.10 0.10 0.09 0.08 0.09 0.08 0.07 0.07 0.06 0.06 0.05 0.04 0.05 0.03 0.03 0.03 0.02 0.02 0.02 0.02 0.02 0.02 0.01 0.01 0.00 0.00 0.01 0.01
0.05 0.05 0.04 0.02 0.02 0.04 0.06 0.06 0.07 0.09 0.09 0.10 0.09 0.08 0.08 0.08 0.09 0.08 0.08 0.06 0.06 0.06 0.06 0.05 0.04 0.04 0.03 0.03 0.04 0.04 0.03 0.02 0.01 0.01 0.01 0.01 0.01 0.01
0.04 0.03 0.04 0.04 0.04 0.05 0.06 0.06 0.06 0.04 0.04 0.05 0.06 0.06 0.06 0.06 0.07 0.08 0.09 0.10 0.09 0.08 0.08 0.07 0.06 0.05 0.03 0.04 0.05 0.04 0.04 0.03 0.03 0.02 0.02 0.02 0.02 0.01
0.05 0.05 0.04 0.03 0.03 0.04 0.06 0.07 0.06 0.05 0.04 0.05 0.05 0.05 0.04 0.05 0.06 0.09 0.11 0.11 0.09 0.08 0.06 0.06 0.06 0.05 0.04 0.04 0.05 0.05 0.05 0.05 0.04 0.03 0.02 0.02 0.02 0.03
0.04 0.05 0.03 0.02 0.03 0.03 0.03 0.06 0.06 0.05 0.04 0.06 0.06 0.07 0.07 0.08 0.07 0.08 0.09 0.10 0.09 0.07 0.06 0.05 0.06 0.06 0.05 0.04 0.04 0.04 0.04 0.03 0.02 0.02 0.02 0.03 0.03 0.04
0.02 0.02 0.02 0.02 0.02 0.02 0.03 0.05 0.05 0.05 0.06 0.08 0.10 0.10 0.11 0.11 0.11 0.09 0.09 0.09 0.09 0.07 0.06 0.06 0.07 0.07 0.06 0.05 0.04 0.05 0.05 0.04 0.02 0.02 0.01 0.01 0.02 0.03
0.03 0.02 0.03 0.04 0.03 0.03 0.03 0.04 0.06 0.06 0.07 0.09 0.10 0.11 0.11 0.10 0.09 0.08 0.09 0.10 0.10 0.09 0.08 0.08 0.07 0.07 0.07 0.07 0.06 0.06 0.07 0.06 0.05 0.04 0.03 0.02 0.02 0.02
0.02 0.03 0.04 0.04 0.03 0.03 0.03 0.04 0.06 0.06 0.06 0.07 0.08 0.09 0.09 0.09 0.07 0.07 0.08 0.08 0.08 0.08 0.08 0.08 0.07 0.08 0.08 0.08 0.07 0.07 0.07 0.06 0.06 0.06 0.05 0.04 0.03 0.02
0.02 0.02 0.04 0.03 0.02 0.02 0.02 0.03 0.04 0.04 0.04 0.05 0.07 0.07 0.08 0.08 0.08 0.08 0.08 0.08 0.09 0.08 0.08 0.08 0.08 0.08 0.08 0.08 0.09 0.10 0.07 0.05 0.05 0.05 0.04 0.03 0.03 0.03
0.04 0.03 0.03 0.04 0.03 0.03 0.02 0.03 0.04 0.05 0.05 0.05 0.06 0.06 0.07 0.08 0.07 0.08 0.09 0.09 0.09 0.08 0.07 0.07 0.07 0.07 0.07 0.07 0.08 0.11 0.10 0.07 0.06 0.06 0.05 0.03 0.03 0.04
0.05 0.04 0.04 0.05 0.04 0.03 0.03 0.03 0.04 0.05 0.06 0.07 0.07 0.07 0.07 0.07 0.08 0.08 0.08 0.09 0.08 0.07 0.07 0.07 0.08 0.07 0.06 0.05 0.06 0.07 0.08 0.09 0.07 0.06 0.05 0.04 0.04 0.04
0.03 0.04 0.04 0.04 0.05 0.05 0.04 0.04 0.04 0.05 0.06 0.06 0.06 0.06 0.07 0.06 0.07 0.07 0.07 0.07 0.07 0.07 0.06 0.07 0.08 0.09 0.07 0.07 0.08 0.07 0.07 0.08 0.06 0.04 0.04 0.04 0.04 0.04
0.03 0.03 0.03 0.04 0.05 0.06 0.06 0.06 0.06 0.06 0.06 0.06 0.06 0.06 0.06 0.06 0.05 0.06 0.06 0.05 0.06 0.06 0.07 0.08 0.09 0.08 0.07 0.07 0.08 0.08 0.06 0.03 0.03 0.03 0.03 0.03 0.04 0.04
0.03 0.04 0.03 0.04 0.05 0.06 0.07 0.08 0.08 0.08 0.08 0.07 0.07 0.07 0.06 0.06 0.05 0.05 0.05 0.05 0.05 0.05 0.05 0.05 0.05 0.06 0.05 0.04 0.04 0.05 0.04 0.04 0.03 0.03 0.02 0.03 0.04 0.04
0.02 0.03 0.03 0.04 0.04 0.05 0.06 0.06 0.07 0.08 0.09 0.09 0.07 0.06 0.05 0.04 0.04 0.04 0.04 0.04 0.05 0.05 0.05 0.05 0.05 0.06 0.05 0.04 0.04 0.04 0.03 0.03 0.03 0.03 0.03 0.02 0.02 0.03
0.02 0.02 0.03 0.03 0.04 0.05 0.05 0.06 0.07 0.08 0.09 0.10 0.07 0.05 0.04 0.04 0.03 0.04 0.03 0.04 0.05 0.05 0.06 0.08 0.07 0.07 0.07 0.06 0.06 0.05 0.05 0.05 0.05 0.04 0.04 0.03 0.02 0.02
MSLP
1012.82 1012.89 1013.00 1013.13 1013.25 1013.33 1013.34 1013.28 1013.15 1012.97 1012.77 1012.58 1012.44 1012.36 1012.36 1012.44 1012.57 1012.75 1012.94 1013.14 1013.32 1013.48 1013.61 1013.73 1013.82 1013.89 1013.94 1013.98 1014.00 1014.01 1014.02 1014.02 1014.03 1014.06 1014.10 1014.15 1014.21 1014.27
1012.35 1012.36 1012.40 1012.48 1012.58 1012.67 1012.73 1012.73 1012.69 1012.59 1012.47 1012.34 1012.23 1012.17 1012.16 1012.20 1012.30 1012.45 1012.62 1012.81 1012.99 1013.17 1013.34 1013.50 1013.64 1013.76 1013.87 1013.96 1014.05 1014.12 1014.18 1014.24 1014.29 1014.33 1014.37 1014.41 1014.43 1014.44
1012.00 1011.95 1011.94 1011.97 1012.03 1012.12 1012.20 1012.26 1012.28 1012.27 1012.22 1012.15 1012.08 1012.03 1012.01 1012.03 1012.10 1012.21 1012.35 1012.52 1012.70 1012.88 1013.06 1013.24 1013.41 1013.56 1013.72 1013.86 1013.99 1014.11 1014.22 1014.31 1014.40 1014.46 1014.51 1014.53 1014.53 1014.51
1011.73 1011.64 1011.58 1011.57 1011.61 1011.69 1011.79 1011.89 1011.97 1012.01 1012.03 1012.01 1011.98 1011.95 1011.93 1011.94 1011.98 1012.05 1012.16 1012.29 1012.45 1012.61 1012.79 1012.97 1013.14 1013.32 1013.48 1013.65 1013.81 1013.96 1014.11 1014.23 1014.34 1014.43 1014.49 1014.52 1014.52 1014.49
1011.47 1011.36 1011.28 1011.25 1011.28 1011.36 1011.48 1011.61 1011.73 1011.82 1011.88 1011.91 1011.91 1011.90 1011.88 1011.87 1011.89 1011.94 1012.01 1012.11 1012.24 1012.38 1012.53 1012.68 1012.84 1013.01 1013.17 1013.34 1013.50 1013.67 1013.83 1013.98 1014.11 1014.22 1014.31 1014.36 1014.39 1014.38
1011.14 1011.04 1010.97 1010.94 1010.98 1011.07 1011.21 1011.36 1011.51 1011.64 1011.73 1011.79 1011.81 1011.81 1011.80 1011.79 1011.80 1011.82 1011.87 1011.94 1012.03 1012.14 1012.26 1012.38 1012.51 1012.64 1012.78 1012.92 1013.07 1013.22 1013.39 1013.55 1013.70 1013.85 1013.97 1014.06 1014.13 1014.17
1010.71 1010.63 1010.59 1010.59 1010.65 1010.76 1010.91 1011.08 1011.25 1011.40 1011.51 1011.59 1011.63 1011.64 1011.63 1011.63 1011.63 1011.65 1011.68 1011.74 1011.80 1011.88 1011.96 1012.04 1012.12 1012.21 1012.30 1012.40 1012.52 1012.66 1012.81 1012.98 1013.15 1013.32 1013.48 1013.63 1013.75 1013.84
1010.17 1010.13 1010.12 1010.15 1010.24 1010.38 1010.55 1010.73 1010.91 1011.06 1011.18 1011.26 1011.30 1011.32 1011.33 1011.33 1011.35 1011.37 1011.40 1011.45 1011.51 1011.56 1011.61 1011.65 1011.69 1011.73 1011.77 1011.83 1011.91 1012.02 1012.15 1012.31 1012.50 1012.70 1012.89 1013.08 1013.26 1013.40
1009.56 1009.55 1009.58 1009.65 1009.77 1009.93 1010.11 1010.29 1010.46 1010.60 1010.71 1010.78 1010.83 1010.85 1010.87 1010.89 1010.92 1010.96 1011.01 1011.06 1011.12 1011.16 1011.19 1011.21 1011.21 1011.21 1011.21 1011.23 1011.28 1011.35 1011.47 1011.62 1011.81 1012.02 1012.25 1012.47 1012.68 1012.87
1008.98 1009.00 1009.05 1009.15 1009.28 1009.43 1009.60 1009.77 1009.92 1010.03 1010.12 1010.18 1010.21 1010.24 1010.26 1010.30 1010.35 1010.41 1010.48 1010.55 1010.62 1010.67 1010.70 1010.71 1010.70 1010.68 1010.66 1010.65 1010.67 1010.73 1010.83 1010.97 1011.15 1011.36 1011.59 1011.83 1012.05 1012.26
1008.50 1008.53 1008.59 1008.69 1008.81 1008.95 1009.09 1009.22 1009.33 1009.40 1009.45 1009.48 1009.50 1009.51 1009.54 1009.58 1009.65 1009.73 1009.83 1009.93 1010.01 1010.08 1010.13 1010.15 1010.15 1010.14 1010.12 1010.11 1010.12 1010.17 1010.26 1010.38 1010.55 1010.74 1010.96 1011.18 1011.40 1011.61
1008.19 1008.20 1008.25 1008.32 1008.41 1008.51 1008.60 1008.67 1008.72 1008.75 1008.75 1008.74 1008.73 1008.73 1008.74 1008.79 1008.86 1008.95 1009.07 1009.18 1009.29 1009.39 1009.46 1009.52 1009.55 1009.56 1009.57 1009.58 1009.61 1009.67 1009.75 1009.86 1010.01 1010.18 1010.36 1010.56 1010.74 1010.92
1008.04 1008.02 1008.03 1008.05 1008.09 1008.12 1008.14 1008.15 1008.13 1008.10 1008.05 1007.99 1007.94 1007.92 1007.91 1007.94 1008.01 1008.10 1008.21 1008.34 1008.46 1008.58 1008.69 1008.78 1008.85 1008.91 1008.97 1009.02 1009.09 1009.16 1009.25 1009.36 1009.48 1009.62 1009.77 1009.92 1010.06 1010.20
1008.00 1007.94 1007.89 1007.84 1007.81 1007.76 1007.71 1007.64 1007.56 1007.46 1007.36 1007.26 1007.17 1007.11 1007.08 1007.09 1007.13 1007.20 1007.29 1007.41 1007.53 1007.66 1007.79 1007.91 1008.03 1008.15 1008.26 1008.37 1008.48 1008.59 1008.70 1008.81 1008.92 1009.02 1009.13 1009.23 1009.34 1009.45
1007.99 1007.87 1007.75 1007.64 1007.52 1007.41 1007.28 1007.14 1007.00 1006.85 1006.70 1006.57 1006.45 1006.35 1006.29 1006.26 1006.26 1006.29 1006.34 1006.43 1006.53 1006.65 1006.78 1006.93 1007.09 1007.25 1007.42 1007.59 1007.75 1007.89 1008.03 1008.14 1008.24 1008.32 1008.40 1008.47 1008.54 1008.63
1007.91 1007.74 1007.56 1007.38 1007.20 1007.02 1006.83 1006.65 1006.46 1006.28 1006.10 1005.94 1005.80 1005.68 1005.58 1005.50 1005.45 1005.43 1005.42 1005.45 1005.51 1005.59 1005.71 1005.85 1006.03 1006.22 1006.43 1006.64 1006.85 1007.03 1007.20 1007.32 1007.42 1007.50 1007.56 1007.61 1007.67 1007.76
1007.74 1007.52 1007.30 1007.07 1006.84 1006.61 1006.39 1006.18 1005.97 1005.78 1005.60 1005.43 1005.28 1005.13 1005.00 1004.88 1004.78 1004.68 1004.61 1004.56 1004.55 1004.57 1004.64 1004.76 1004.92 1005.12 1005.34 1005.58 1005.81 1006.03 1006.22 1006.36 1006.47 1006.55 1006.61 1006.67 1006.74 1006.84
1007.48 1007.24 1006.99 1006.73 1006.48 1006.24 1006.02 1005.81 1005.61 1005.43 1005.26 1005.10 1004.95 1004.80 1004.64 1004.48 1004.31 1004.15 1003.99 1003.85 1003.74 1003.68 1003.67 1003.73 1003.84 1004.01 1004.22 1004.46 1004.71 1004.94 1005.14 1005.31 1005.44 1005.54 1005.62 1005.70 1005.80 1005.93
1007.23 1006.99 1006.73 1006.48 1006.24 1006.02 1005.81 1005.62 1005.45 1005.30 1005.16 1005.02 1004.88 1004.72 1004.54 1004.34 1004.11 1003.87 1003.62 1003.37 1003.16 1002.99 1002.88 1002.84 1002.88 1002.99 1003.16 1003.37 1003.61 1003.84 1004.06 1004.25 1004.40 1004.53 1004.64 1004.76 1004.89 1005.07
1007.10 1006.87 1006.65 1006.43 1006.22 1006.03 1005.86 1005.71 1005.58 1005.46 1005.35 1005.23 1005.10 1004.93 1004.73 1004.48 1004.19 1003.86 1003.51 1003.15 1002.82 1002.52 1002.29 1002.14 1002.08 1002.10 1002.21 1002.37 1002.58 1002.80 1003.02 1003.23 1003.42 1003.58 1003.74 1003.89 1004.07 1004.29
1007.18 1007.01 1006.83 1006.66 1006.50 1006.35 1006.23 1006.12 1006.02 1005.93 1005.84 1005.73 1005.59 1005.41 1005.17 1004.86 1004.50 1004.08 1003.62 1003.14 1002.68 1002.25 1001.88 1001.60 1001.42 1001.34 1001.36 1001.46 1001.63 1001.83 1002.06 1002.29 1002.51 1002.72 1002.93 1003.14 1003.36 1003.62
1007.54 1007.42 1007.31 1007.20 1007.09 1007.00 1006.91 1006.83 1006.76 1006.68 1006.59 1006.46 1006.29 1006.07 1005.77 1005.39 1004.94 1004.41 1003.84 1003.23 1002.63 1002.06 1001.55 1001.13 1000.82 1000.63 1000.55 1000.59 1000.71 1000.90 1001.13 1001.40 1001.66 1001.93 1002.20 1002.46 1002.74 1003.03
1008.13 1008.09 1008.04 1007.99 1007.94 1007.88 1007.83 1007.76 1007.69 1007.59 1007.47 1007.30 1007.07 1006.77 1006.39 1005.92 1005.36 1004.71 1004.01 1003.27 1002.52 1001.80 1001.15 1000.59 1000.15 999.85 999.68 999.65 999.74 999.92 1000.17 1000.48 1000.80 1001.14 1001.48 1001.82 1002.16 1002.50
Thickness
5751 5750 5748 5748 5749 5748 5747 5743 5736 5731 5733 5742 5745 5750 5750 5748 5745 5744 5742 5740 5739 5739 5738 5737 5736 5734 5733 5732 5730 5728 5727 5725 5724 5722 5721 5719 5718 5717
5747 5745 5744 5744 5744 5744 5744 5742 5739 5733 5729 5736 5739 5743 5743 5743 5741 5740 5739 5737 5737 5736 5734 5734 5733 5731 5730 5728 5726 5725 5723 5721 5720 5718 5717 5716 5714 5713
5741 5741 5739 5739 5738 5738 5738 5737 5735 5732 5726 5731 5734 5737 5736 5735 5735 5735 5734 5733 5732 5732 5731 5729 5728 5727 5725 5724 5722 5721 5719 5717 5715 5714 5713 5711 5710 5709
5736 5735 5734 5734 5732 5731 5730 5729 5729 5728 5724 5721 5725 5727 5728 5729 5729 5728 5728 5728 5727 5727 5726 5725 5724 5723 5722 5720 5718 5716 5714 5713 5711 5709 5708 5707 5706 5705
5733 5731 5729 5727 5725 5724 5723 5722 5722 5723 5720 5717 5718 5720 5721 5722 5721 5721 5721 5721 5721 5721 5720 5719 5718 5718 5717 5715 5713 5711 5710 5708 5707 5705 5704 5703 5701 5700
5729 5727 5725 5722 5719 5718 5717 5716 5715 5713 5713 5711 5711 5712 5712 5714 5712 5710 5710 5711 5712 5713 5712 5712 5712 5712 5711 5710 5708 5707 5705 5703 5702 5700 5699 5698 5697 5695
5723 5722 5720 5719 5716 5713 5712 5709 5708 5706 5705 5703 5702 5702 5703 5702 5701 5702 5700 5701 5703 5705 5703 5704 5704 5703 5703 5702 5702 5700 5699 5697 5696 5695 5694 5693 5691 5690
5716 5716 5715 5713 5711 5709 5706 5704 5702 5699 5697 5695 5694 5693 5694 5695 5695 5694 5692 5691 5690 5695 5694 5694 5696 5695 5695 5695 5696 5695 5693 5691 5690 5688 5687 5687 5685 5684
5711 5709 5709 5709 5705 5702 5700 5698 5697 5696 5694 5691 5688 5688 5688 5689 5688 5686 5684 5683 5683 5687 5685 5685 5687 5687 5688 5689 5689 5688 5686 5685 5683 5682 5680 5680 5678 5677
5706 5704 5701 5699 5698 5694 5693 5692 5691 5691 5690 5688 5686 5686 5686 5685 5683 5681 5680 5679 5679 5681 5680 5677 5679 5680 5682 5681 5681 5680 5678 5677 5676 5674 5673 5672 5672 5671
5700 5699 5696 5693 5690 5687 5685 5684 5684 5684 5685 5683 5682 5681 5680 5680 5678 5674 5672 5669 5668 5671 5674 5671 5671 5672 5673 5673 5673 5672 5670 5669 5668 5666 5665 5665 5664 5663
5693 5692 5690 5686 5683 5680 5678 5677 5675 5676 5676 5675 5674 5674 5674 5673 5672 5669 5666 5662 5661 5662 5666 5664 5663 5662 5661 5664 5664 5663 5661 5661 5660 5660 5659 5658 5657 5655
5686 5685 5684 5680 5677 5674 5672 5671 5670 5669 5668 5668 5667 5667 5666 5666 5664 5663 5661 5658 5655 5654 5658 5656 5654 5653 5651 5653 5655 5654 5654 5653 5653 5652 5651 5651 5649 5648
5678 5679 5677 5674 5671 5669 5667 5666 5665 5663 5662 5660 5659 5659 5658 5657 5657 5655 5654 5653 5651 5650 5651 5649 5647 5645 5643 5643 5644 5646 5646 5646 5645 5645 5644 5643 5642 5641
5672 5671 5669 5666 5664 5663 5662 5660 5658 5656 5655 5653 5651 5651 5651 5651 5649 5648 5647 5645 5644 5644 5644 5643 5641 5639 5638 5635 5636 5636 5637 5638 5638 5637 5637 5636 5635 5634
5663 5662 5661 5660 5659 5657 5656 5654 5652 5650 5648 5647 5646 5645 5645 5643 5641 5640 5637 5636 5634 5634 5635 5635 5634 5633 5631 5630 5629 5628 5629 5629 5629 5629 5629 5629 5628 5627
5654 5654 5654 5654 5652 5652 5651 5649 5647 5645 5642 5640 5639 5638 5636 5635 5633 5632 5630 5628 5625 5624 5625 5626 5626 5625 5624 5623 5621 5621 5621 5621 5622 5621 5620 5620 5620 5620
5645 5647 5646 5645 5644 5643 5642 5641 5639 5637 5635 5633 5632 5630 5628 5626 5625 5624 5622 5620 5618 5617 5616 5616 5616 5615 5614 5614 5614 5613 5613 5613 5613 5613 5612 5611 5610 5610
5638 5639 5638 5637 5636 5634 5633 5632 5631 5630 5629 5627 5625 5623 5621 5619 5617 5615 5613 5611 5610 5609 5609 5609 5607 5605 5603 5603 5606 5606 5605 5605 5604 5604 5604 5603 5601 5601
5633 5633 5631 5629 5628 5627 5625 5624 5624 5623 5621 5619 5617 5615 5614 5611 5609 5607 5606 5604 5602 5602 5601 5601 5600 5598 5597 5597 5597 5598 5598 5598 5597 5595 5595 5595 5594 5594
5627 5626 5624 5622 5621 5619 5618 5617 5616 5614 5613 5612 5610 5608 5606 5603 5601 5600 5599 5596 5595 5595 5594 5594 5594 5595 5594 5593 5591 5591 5591 5591 5591 5589 5588 5587 5586 5585
5620 5618 5616 5614 5612 5611 5609 5608 5607 5606 5605 5603 5601 5600 5599 5597 5595 5593 5592 5591 5589 5589 5588 5589 5589 5589 5587 5585 5585 5585 5584 5584 5584 5583 5582 5581 5580 5579
5612 5610 5608 5606 5605 5603 5601 5600 5599 5598 5596 5594 5593 5591 5590 5589 5588 5587 5586 5585 5584 5582 5582 5582 5582 5582 5582 5581 5580 5580 5578 5577 5576 5575 5574 5574 5574 5573